Tracking 17886 objects as of 9-December-2016
HD Live streaming from Space Station
objects crossing your sky now

EUTELSAT 2-F4

Track EUTELSAT 2-F4 now!
EUTELSAT 2-F4 is classified as:


NORAD ID: 22028
Int'l Code: 1992-041B
Perigee: 36,084.5 km
Apogee: 36,178.8 km
Inclination: 12.7 °
Period: 1,453.4 minutes
Semi major axis: 42502 km
RCS: 3.1622 m2 (large)
Launch date: July 9, 1992
Source: European Telecommunications Satellite Organization (EUTE)
Launch site: FRENCH GUIANA (FRGUI)
Your satellite tracking list
Your tracking list is empty





NASA's NSSDC Master Catalog

Two Line Element Set (TLE):
1 22028U 92041B   16341.40837773 -.00000201  00000-0  00000+0 0  9997
2 22028  12.6522  33.6082 0011092 198.0051 295.7834  0.99078402 81751
Source of the keplerian elements: AFSPC